This is the latest recevied weather packets stored in our database for station/object WA2TQI. If no packets are shown the sender has not sent any weather packets the latest 10 day(s).
| Time | Temp. | Humidity | Pressure | Rain* | Wind** | Luminosity | Snow |
|---|---|---|---|---|---|---|---|
| 1777313423 | 20° C | 51% | 1024.6 hPa | 0 mm | - | - | - |
| 1777313120 | 20.56° C | 51% | 1024.7 hPa | 0 mm | - | - | - |
| 1777312816 | 20° C | 52% | 1024.6 hPa | 0 mm | - | - | - |
| 1777312513 | 20.56° C | 52% | 1024.9 hPa | 0 mm | - | - | - |
| 1777312210 | 20° C | 52% | 1024.8 hPa | 0 mm | - | - | - |
| 1777310998 | 20° C | 53% | 1024.9 hPa | 0 mm | - | - | - |
| 1777310393 | 20.56° C | 52% | 1025 hPa | 0 mm | - | - | - |
| 1777310090 | 20.56° C | 51% | 1025.1 hPa | 0 mm | - | - | - |
| 1777309183 | 20° C | 51% | 1025 hPa | 0 mm | - | - | - |
| 1777308576 | 19.44° C | 52% | 1025.1 hPa | 0 mm | - | - | - |
| 1777307665 | 18.89° C | 54% | 1025.1 hPa | 0 mm | - | - | - |
| 1777307362 | 18.89° C | 57% | 1025.4 hPa | 0 mm | - | - | - |
| 1777307060 | 18.33° C | 55% | 1025.3 hPa | 0 mm | - | - | - |
| 1777306757 | 18.89° C | 55% | 1025.2 hPa | 0 mm | - | - | - |
| 1777306454 | 19.44° C | 55% | 1025.2 hPa | 0 mm | - | - | - |
| 1777306149 | 18.89° C | 53% | 1025.4 hPa | 0 mm | - | - | - |
| 1777304325 | 18.33° C | 61% | 1025.6 hPa | 0 mm | - | - | - |
| 1777303718 | 17.78° C | 61% | 1025.5 hPa | 0 mm | - | - | - |
| 1777303416 | 17.78° C | 61% | 1025.4 hPa | 0 mm | - | - | - |
| 1777302812 | 17.78° C | 63% | 1025.6 hPa | 0 mm | - | - | - |
| 1777302509 | 17.78° C | 63% | 1025.8 hPa | 0 mm | - | - | - |
| 1777300692 | 16.67° C | 68% | 1025.9 hPa | 0 mm | - | - | - |
| 1777300390 | 16.67° C | 69% | 1025.8 hPa | 0 mm | - | - | - |
| 1777300087 | 16.67° C | 69% | 1025.7 hPa | 0 mm | - | - | - |
| 1777299783 | 16.11° C | 69% | 1025.7 hPa | 0 mm | - | - | - |
* Rain latest hour (hover to see other rain measurements)
** Current wind speed in m/s (hover to see current wind gust speed)